Manhattan, KS

1:51 AM CST on November 20, 2017 (GMT -0600)
Manhattan Regional

Weather History for KMHK - November, 2010

Change the Weather History Date:

Tuesday, November 30, 2010

  Actual Average Record
Temperature  
Mean Temperature 30 °F 36 °F  
Max Temperature 39 °F 47 °F 66 °F (2003)
Min Temperature 21 °F 24 °F 15 °F (2005)
Degree Days  
Heating Degree Days 35 29  
Month to date heating degree days 676  
Since 1 July heating degree days 1075  
Cooling Degree Days 0 0  
Month to date cooling degree days 1  
Year to date cooling degree days 1362  
Moisture  
Dew Point 13 °F    
Average Humidity 53    
Maximum Humidity 71    
Minimum Humidity 31    
Precipitation  
Precipitation 0.00 in 0.03 in 0.70 in (2015)
Month to date precipitation 1.60  
Year to date precipitation 31.53  
Sea Level Pressure  
Sea Level Pressure 30.12 in    
Wind  
Wind Speed 8 mph (NW)    
Max Wind Speed 14 mph    
Max Gust Speed 30 mph    
Visibility 10 miles    
Events      
T = Trace of Precipitation, MM = Missing Value Source: NWS Daily Summary

Daily Weather History Graph

Daily Weather History Graph

Search for Another Location

Airport or City:

Trip Planner

Search our weather history database for the weather conditions in past years. The results will help you decide how hot, cold, wet, or windy it might be!

Date:

Astronomy

Nov. 30, 2010 Rise Set
Actual Time 7:25 AM CST 5:04 PM CST
Civil Twilight 6:56 AM CST 5:34 PM CST
Nautical Twilight 6:23 AM CST 6:07 PM CST
Astronomical Twilight 5:51 AM CST 6:39 PM CST
Moon 1:45 AM CST (11/30) 1:33 PM CST (11/30)
Length of Visible Light 10h 37m
Length of Day
9h 38m
Waning Crescent, 29% of the Moon is Illuminated
Nov 30
Waning Crescent
Dec 5
New
Dec 13
First Quarter
Dec 21
Full
Dec 27
Last Quarter

Hourly Weather History & Observations

Time (CST) Temp. Windchill Dew Point Humidity Pressure Visibility Wind Dir Wind Speed Gust Speed Precip Events Conditions
12:52 AM 26.1 °F 17.6 °F 14.0 °F 60% 30.03 in 10.0 mi NW 8.1 mph 21.9 mph N/A   Mostly Cloudy
1:52 AM 27.0 °F 15.6 °F 14.0 °F 58% 30.05 in 10.0 mi NNW 13.8 mph 23.0 mph N/A   Overcast
2:52 AM 28.0 °F 22.8 °F 15.1 °F 58% 30.04 in 10.0 mi Variable 4.6 mph - N/A   Overcast
3:52 AM 28.9 °F 19.8 °F 17.1 °F 61% 30.03 in 10.0 mi West 10.4 mph - N/A   Overcast
4:52 AM 28.9 °F 18.6 °F 16.0 °F 58% 30.05 in 10.0 mi NW 12.7 mph 20.7 mph N/A   Overcast
5:52 AM 28.9 °F 18.6 °F 16.0 °F 58% 30.06 in 10.0 mi NW 12.7 mph 26.5 mph N/A   Overcast
6:52 AM 28.4 °F 17.5 °F 15.8 °F 59% 30.06 in 10.0 mi NW 13.8 mph 21.9 mph N/A   Overcast
7:52 AM 26.1 °F 18.4 °F 12.9 °F 58% 30.11 in 10.0 mi Variable 6.9 mph 19.6 mph N/A   Overcast
8:52 AM 26.1 °F 16.8 °F 12.9 °F 58% 30.14 in 10.0 mi NW 9.2 mph 21.9 mph N/A   Clear
9:52 AM 28.0 °F 20.8 °F 12.9 °F 53% 30.15 in 10.0 mi Variable 6.9 mph 19.6 mph N/A   Clear
10:52 AM 30.9 °F 22.8 °F 12.9 °F 47% 30.15 in 10.0 mi NW 9.2 mph 21.9 mph N/A   Clear
11:52 AM 34.0 °F 26.0 °F 12.0 °F 40% 30.14 in 10.0 mi NW 10.4 mph 20.7 mph N/A   Clear
12:52 PM 37.0 °F 29.3 °F 10.9 °F 34% 30.12 in 10.0 mi NW 11.5 mph 21.9 mph N/A   Clear
1:52 PM 37.9 °F 30.5 °F 10.9 °F 33% 30.11 in 10.0 mi NW 11.5 mph 27.6 mph N/A   Clear
2:52 PM 39.9 °F 32.5 °F 10.9 °F 31% 30.11 in 10.0 mi NW 12.7 mph 26.5 mph N/A   Partly Cloudy
3:52 PM 39.0 °F 31.0 °F 10.9 °F 32% 30.12 in 10.0 mi NNW 13.8 mph 29.9 mph N/A   Clear
4:52 PM 36.0 °F 29.6 °F 12.0 °F 37% 30.14 in 10.0 mi NW 8.1 mph - N/A   Clear
5:52 PM 32.0 °F - 12.9 °F 45% 30.15 in 10.0 mi Calm Calm - N/A   Clear
6:52 PM 28.0 °F - 12.9 °F 53% 30.16 in 10.0 mi Calm Calm - N/A   Clear
7:52 PM 26.1 °F 21.9 °F 12.9 °F 58% 30.17 in 10.0 mi West 3.5 mph - N/A   Clear
8:52 PM 23.0 °F - 12.9 °F 65% 30.18 in 10.0 mi Calm Calm - N/A   Clear
9:52 PM 23.0 °F - 12.9 °F 65% 30.18 in 10.0 mi Calm Calm - N/A   Clear
10:52 PM 21.0 °F - 12.9 °F 71% 30.19 in 10.0 mi Calm Calm - N/A   Clear
11:52 PM 23.0 °F - 14.0 °F 68% 30.19 in 10.0 mi Calm Calm - N/A   Clear